Regional Weather Roundup
Issued by NWS

Home | Current Version | Previous Version | Graphics & Text | Print | Product List | Glossary On
Versions: 1 2 3 4 5 6 7 8 9 10 11 12 13 14 15 16 17 18 19 20 21 22 23 24 25 26 27 28 29 30 31 32 33 34 35 36 37 38 39 40 41 42 43 44 45 46 47 48 49 50
000
ASUS44 KMEG 241610
RWRTN
TENNESSEE HOURLY STATE WEATHER ROUNDUP
NATIONAL WEATHER SERVICE MEMPHIS TN
1100 AM CDT THU JUL 24 2014

TNZ002-004-019-021-049-052-054-088>092-241700-
WEST TENNESSEE

CITY           SKY/WX    TMP DP  RH WIND       PRES   REMARKS
MEMPHIS INTL   MOSUNNY   80  64  58 N10       30.07S
NWS MEMPHIS      N/A     77 N/A N/A MISG        N/A
JACKSON        SUNNY     76  60  57 N9        30.06S
DYERSBURG      SUNNY     73  55  53 N12       30.08F
UNION CITY     SUNNY     72  63  73 N10       30.06F
PARIS          SUNNY     71  61  70 CALM      30.06F
LEXINGTON      MOSUNNY   77  66  69 VRB6      30.03F
$$

TNZ008-025-027-028-033-062-065-066-241700-
NORTH MIDDLE TENNESSEE

CITY           SKY/WX    TMP DP  RH WIND       PRES   REMARKS
NASHVILLE      CLOUDY    78  67  68 NW8       30.03S
DICKSON        MOSUNNY   75  64  69 N6        30.04S
PORTLAND       CLOUDY    70  64  83 NW5       30.04R
CLARKSVILLE    PTSUNNY   77  63  61 N9        30.05S
LEBANON        CLOUDY    75  67  76 NW10      30.02R
SMYRNA         PTSUNNY   80  70  71 N8        30.03S
COOKEVILLE     MOSUNNY   79  72  78 CALM      30.02S
LIVINGSTON     PTSUNNY   75  69  81 W6        30.03S
GALLATIN       CLOUDY    74  68  81 N8        30.04R
CROSSVILLE     PTSUNNY   76  67  73 W8        30.06R
$$

TNZ061-075-076-078-094-096-097-241700-
SOUTH MIDDLE TENNESSEE

CITY           SKY/WX    TMP DP  RH WIND       PRES   REMARKS
LEWISBURG      PTSUNNY   78  69  73 NW5       30.02S
FAYETTEVILLE   MOSUNNY   73  70  88 NW9       30.04S
TULLAHOMA      CLOUDY    73  70  88 NW6       30.05S
WINCHESTER     PTSUNNY   79  70  73 CALM      30.03F
MCMINNVILLE    MOSUNNY   75  75 100 W5        30.03S
COLUMBIA       CLOUDY    77  70  78 NW5       30.02S
SHELBYVILLE    PTSUNNY   81  72  74 VRB5      30.03F
$$

TNZ017-018-042-046-047-241700-
NORTHEAST TENNESSEE

CITY           SKY/WX    TMP DP  RH WIND       PRES   REMARKS
TRI CITIES     MOSUNNY   78  67  68 W3        29.99F
ELIZABETHTON   DRIZZLE   72  70  94 W3        30.00F
$$

TNZ012-013-036-069-073-074-241700-
CENTRAL EAST TENNESSEE

CITY           SKY/WX    TMP DP  RH WIND       PRES   REMARKS
KNOXVILLE      PTSUNNY   80  70  71 W10       29.98S
OAK RIDGE      MOSUNNY   82  68  62 W7        30.00S
GATLINBURG     MOSUNNY   82  70  65 W7        29.98S
MORRISTOWN       N/A     81  72  74 NW10      30.00S
$$

TNZ083-085-099-241700-
SOUTHEAST TENNESSEE

CITY           SKY/WX    TMP DP  RH WIND       PRES   REMARKS
CHATTANOOGA    CLOUDY    79  70  74 CALM      30.00F
$$

SKY/WX REPORTED AS FAIR MEANS FEW OR NO CLOUDS BELOW
12 THOUSAND FEET.



USA.gov is the U.S. government's official web portal to all federal, state and local government web resources and services.